This is the latest recevied weather packets stored in our database for station/object CYEG. If no packets are shown the sender has not sent any weather packets the latest 1 day(s).
| Time | Temp. | Humidity | Pressure | Rain* | Wind** | Luminosity | Snow |
|---|---|---|---|---|---|---|---|
| 1778059398 | 0.56° C | 50% | 1014.6 hPa | - | - | - | - |
| 1778058798 | 0.56° C | 50% | 1014.6 hPa | - | - | - | - |
| 1778058201 | 1.67° C | 51% | 1015.2 hPa | - | - | - | - |
| 1778057601 | 1.67° C | 51% | 1015.2 hPa | - | - | - | - |
| 1778057003 | 1.67° C | 51% | 1015.2 hPa | - | - | - | - |
| 1778055797 | 1.67° C | 51% | 1015.2 hPa | - | - | - | - |
| 1778055196 | 1.67° C | 51% | 1015.2 hPa | - | - | - | - |
| 1778054597 | 1.67° C | 51% | 1016.3 hPa | - | - | - | - |
| 1778053399 | 1.67° C | 51% | 1016.3 hPa | - | - | - | - |
| 1778052797 | 1.67° C | 51% | 1016.3 hPa | - | - | - | - |
| 1778052198 | 1.67° C | 51% | 1016.3 hPa | - | - | - | - |
| 1778051599 | 1.67° C | 51% | 1016.3 hPa | - | - | - | - |
| 1778049796 | 1.67° C | 51% | 1016.3 hPa | - | - | - | - |
| 1778049203 | 2.78° C | 47% | 1016.6 hPa | - | - | - | - |
| 1778046798 | 2.78° C | 51% | 1016.9 hPa | - | - | - | - |
| 1778044397 | 2.78° C | 51% | 1016.9 hPa | - | - | - | - |
| 1778043196 | 3.89° C | 48% | 1017.3 hPa | - | - | - | - |
| 1778042599 | 3.89° C | 48% | 1017.3 hPa | - | - | - | - |
| 1778041998 | 3.89° C | 48% | 1017.3 hPa | - | - | - | - |
| 1778040800 | 3.89° C | 48% | 1017.3 hPa | - | - | - | - |
| 1778040318 | 6.67° C | 39% | 1017.6 hPa | - | - | - | - |
| 1778039003 | 6.67° C | 39% | 1017.6 hPa | - | - | - | - |
| 1778038402 | 6.67° C | 39% | 1017.6 hPa | - | - | - | - |
| 1778037800 | 6.67° C | 39% | 1017.6 hPa | - | - | - | - |
| 1778037197 | 6.67° C | 39% | 1017.6 hPa | - | - | - | - |
* Rain since midnight (hover to see other rain measurements)
** Current wind speed in m/s (hover to see current wind gust speed)